Location: Rounton
(54.4000°N, 1.3500°W)
Time: 14:42:47
(UTC+00:00)

Transit 2A Rocket - Pass Details

Date: 01 December 2021
Orbit: 584 x 918 km, 66.7° (Epoch: 21 January)

Event Time Altitude Azimuth Distance (km) Brightness Sun altitude
Rises 18:50:03 0° 308° (NW) 3,560 9.2 -25.7°
Reaches altitude 10° 18:55:12 10° 272° (W) 2,575 8.7 -26.4°
Maximum altitude 18:56:15 11° 262° (W) 2,528 8.7 -26.6°
Drops below altitude 10° 18:57:17 10° 251° (WSW) 2,549 8.6 -26.7°
Sets 19:02:14 0° 214° (SW) 3,404 8.8 -27.4°
